Regional Weather Roundup
Issued by NWS

Home | Current Version | Previous Version | Text Only | Print | Product List | Glossary On
Versions: 1 2 3 4 5 6 7 8 9 10 11 12 13 14 15 16 17 18 19 20 21 22 23 24 25 26 27 28 29 30 31 32 33 34 35 36 37 38 39 40 41 42 43 44 45 46 47 48 49 50
000
ASUS42 KKEY 260210
RWRKEY

FLORIDA REGIONAL WEATHER ROUNDUP FOR THE FLORIDA KEYS
NATIONAL WEATHER SERVICE KEY WEST FLORIDA
1000 PM EDT MON MAY 25 2015

...SOUTH FLORIDA AND THE KEYS...

CITY           SKY/WX    TMP DP  RH WIND       PRES   REMARKS
FORT MYERS     CLOUDY    78  75  90 E6        30.13R
SW REGIONAL AP CLOUDY    80  71  74 E9        30.14R
NAPLES         CLOUDY    79  74  84 E5        30.13R
MIAMI          PTCLDY    82  72  71 E16       30.15R
WEST KENDALL   PTCLDY    81  74  79 E13       30.15R
HOMESTEAD      PTCLDY    82  73  76 E12       30.15R
MARATHON       CLEAR     82  76  81 E10       30.12S
BOCA CHICA NAS PTCLDY    82  73  74 E17       30.11S
KEY WEST INTL  PTCLDY    82  74  76 E17G25    30.12R

...INTERNATIONAL WEATHER...

CITY           SKY/WX    TMP DP  RH WIND       PRES   REMARKS
NASSAU BAHAMAS PTCLDY    81  72  74 E9        30.17R
CANCUN MEXICO  PTCLDY    82  75  78 E7        30.01R
COZUMEL MEXICO PTCLDY    79  73  83 CALM      30.00R

ADJACENT COASTAL WATERS...

STATION/POSITION TIME  SKY/WX   TEMP    WIND        PRES    WAVE
                                AIR SEA DIR/SP/G            HT/PER
                 (UTC)          (F)     (DEG/KT/KT) (MB)    (FT/S)
PULASKI SHOAL LI 0100            83     120/ 21/ 23 1018.9R
SAND KEY         0150            82     110/ 20/ 23 1019.4R
SOMBRERO KEY     0200            81      90/ 17/ 18 1020.5R
LONG KEY         0100            82 85  110/ 13/ 15 1020.7R
MOLASSES REEF    0200            80 82  130/ 12/ 13 1020.6R
FOWEY ROCKS      NOT AVBL

$$


USA.gov is the U.S. government's official web portal to all federal, state and local government web resources and services.